CAPE
0 0 0 0 0 0 0 0 0 0 0 0 0 0 0 0 0 0 0 0 0 0 0 58 1599 1451 1452 1587 1459 701 602 479 612 497 485 454 333 207 83 1 0 0 0 7 0 647 595 86 8
0 0 0 0 0 0 0 0 0 0 0 0 0 0 0 0 0 0 0 0 0 0 0 0 428 1455 1578 1434 1659 1557 1247 719 836 736 462 337 170 100 24 33 8 0 1 2 128 764 489 28 3
0 0 0 0 0 0 0 0 0 0 0 0 0 0 0 0 0 0 0 0 0 0 0 0 0 37 1210 1334 1406 1634 1685 1490 1224 1007 574 227 121 95 60 69 6 27 84 287 743 635 308 95 95
0 0 0 0 0 0 0 0 0 0 0 0 0 0 0 0 0 0 0 0 0 0 0 0 0 0 0 453 1221 1132 1363 1462 1585 1474 1153 390 170 98 188 722 352 605 729 964 734 717 252 349 248
0 0 0 0 0 0 0 0 0 0 0 0 0 0 0 0 0 0 0 0 0 0 0 0 0 0 0 0 0 1138 1166 1149 1419 1265 1055 421 250 278 941 1012 755 958 882 1016 763 251 102 319 351
0 0 0 0 0 0 0 0 0 0 0 0 0 0 0 0 0 0 0 0 0 0 0 0 0 0 0 0 0 0 765 1203 1133 1333 1244 1106 835 906 1257 1150 1054 1051 831 887 611 78 138 213 334
0 0 0 0 0 0 0 0 0 0 0 0 0 0 0 0 0 0 0 0 0 0 0 0 0 0 0 0 0 0 0 163 1038 1028 1030 906 1099 1030 1364 1436 1253 1016 1015 895 690 238 184 245 269
0 0 0 0 0 0 0 0 0 0 0 0 0 0 0 0 0 0 0 0 0 0 0 0 0 0 0 0 0 0 0 0 102 862 646 613 612 915 1260 1167 1185 1267 1116 975 747 375 217 366 315
0 0 0 0 0 0 0 0 0 0 0 0 0 0 0 0 0 0 0 0 0 0 0 0 0 0 0 0 0 0 0 0 0 462 572 393 315 532 814 920 793 983 1085 915 819 602 277 167 117
0 0 0 0 0 0 0 0 0 0 0 0 0 0 0 0 0 0 0 0 0 0 0 0 0 0 0 0 0 0 0 0 0 35 584 318 330 350 456 641 586 732 977 906 802 682 319 21 0
0 0 0 0 0 0 0 0 0 0 0 0 0 0 0 0 0 0 0 0 0 0 0 0 0 0 0 0 0 0 0 0 0 0 226 630 484 209 186 351 260 384 649 536 553 371 50 0 0
0 0 0 0 0 0 0 0 0 0 0 0 0 0 0 0 0 0 0 0 0 0 0 0 0 0 0 0 0 0 0 0 0 0 0 498 529 323 251 398 412 382 384 268 165 34 0 0 0
0 0 0 0 0 0 0 0 0 0 0 0 0 0 0 0 0 0 0 0 0 0 0 0 0 0 0 0 0 0 0 0 0 0 0 0 330 536 378 415 314 254 197 336 164 47 0 0 0
0 0 0 0 0 0 0 0 0 0 0 0 0 0 0 0 0 0 0 0 0 0 0 0 0 0 0 0 0 0 0 0 0 0 0 0 0 311 580 450 350 173 159 197 96 6 0 0 0
0 0 0 0 0 0 0 0 0 0 0 0 0 0 0 0 0 0 0 0 0 0 0 0 0 0 0 0 0 0 0 0 0 0 0 0 0 0 191 498 326 231 262 155 53 43 0 0 0
0 0 0 0 0 0 1 0 0 0 0 0 0 0 0 0 0 0 0 0 0 0 0 0 0 0 0 0 0 0 0 0 0 0 0 0 0 0 0 40 287 274 190 139 60 26 6 1 0
0 0 0 0 0 0 6 3 0 0 0 0 0 0 0 0 0 0 0 0 0 0 0 0 0 0 0 0 0 0 0 0 0 0 0 0 0 0 0 0 14 308 257 93 86 14 2 3 0
0 0 0 0 0 0 0 0 0 0 0 0 0 0 0 0 0 0 0 0 0 0 0 0 0 0 0 0 0 0 0 0 0 0 0 0 0 0 0 0 11 114 415 172 99 58 5 0 0
0 0 0 0 0 0 0 0 0 0 0 0 0 0 0 0 0 0 0 0 0 0 0 0 0 0 0 0 0 0 0 0 0 0 0 0 0 0 0 0 0 46 218 314 129 65 13 1 0
0 0 0 0 0 0 0 0 0 0 0 0 0 0 0 0 0 0 0 0 0 0 0 0 0 0 0 0 0 0 0 0 0 0 0 0 0 0 0 0 1 10 8 245 233 156 121 4 0
0 0 0 0 0 0 0 0 0 0 0 0 0 0 0 0 0 0 0 0 0 0 0 0 0 0 0 0 0 0 0 1 0 0 0 0 0 0 0 0 0 3 9 0 101 191 174 10 1
0 0 0 0 0 0 0 0 0 0 0 0 0 0 0 0 0 0 0 0 0 0 0 0 0 0 0 0 0 1 2 3 0 1 0 0 0 0 0 0 0 16 23 9 0 227 208 113 6
0 0 0 0 0 0 0 0 0 0 0 0 0 0 0 0 0 0 0 0 0 0 0 0 0 0 0 0 0 2 7 8 6 3 2 0 0 0 0 0 0 27 52 35 4 0 119 220 102
0 0 0 0 0 0 0 0 0 0 0 0 0 0 0 0 0 0 0 0 0 0 0 0 0 0 0 0 0 1 0 0 3 3 0 0 0 0 0 0 5 38 65 59 22 32 57 134 199
0 0 0 0 0 0 0 0 0 0 0 0 0 0 0 0 0 0 0 0 0 0 0 0 0 0 0 0 0 2 4 3 0 1 3 0 0 0 0 1 15 40 70 67 56 11 0 4 49
0 0 0 0 0 0 0 0 0 0 0 0 0 0 0 0 0 0 0 0 0 0 0 0 0 0 0 0 0 1 3 7 9 1 0 0 0 0 0 0 5 30 47 54 98 174 179 128 21
0 0 0 0 0 0 0 0 0 0 0 0 0 0 0 0 0 0 0 0 0 0 0 0 0 0 0 0 0 1 4 4 6 3 2 0 0 0 0 0 0 3 26 41 59 80 54 82 56
0 0 0 0 0 0 0 0 0 0 0 0 0 0 0 0 0 0 0 0 0 0 0 0 0 0 0 0 0 2 3 5 3 4 5 2 0 0 0 0 0 8 22 25 15 32 39 76 86
0 0 0 0 0 0 0 0 0 0 0 0 0 0 0 0 0 0 0 0 0 0 0 0 0 0 0 0 0 0 1 3 4 5 2 3 0 1 0 0 0 9 23 31 27 28 40 63 99
0 0 0 0 0 0 0 0 0 0 0 0 0 0 0 0 0 0 0 0 0 0 0 0 0 0 0 0 0 0 0 1 2 1 3 3 1 0 0 0 0 1 15 28 16 9 37 46 86
CIN
-0 -0 -0 -0 -0 -0 -0 -0 -0 -0 -0 -0 -0 -0 -0 -0 -0 -0 -0 -0 -0 -0 -0 -231 -6 -5 -3 -1 -0 -20 -24 -32 -16 -27 -26 -30 -38 -54 -130 -0 -0 -0 -0 -152 -0 -16 -22 -131 -0
-0 -0 -0 -0 -0 -0 -0 -0 -0 -0 -0 -0 -0 -0 -0 -0 -0 -0 -0 -0 -0 -0 -0 -0 -112 -5 -3 -2 -0 -0 -0 -10 -2 -3 -24 -43 -84 -127 -208 -202 -116 -0 -0 -26 -92 -3 -36 -63 -23
-0 -0 -0 -0 -0 -0 -0 -0 -0 -0 -0 -0 -0 -0 -0 -0 -0 -0 -0 -0 -0 -0 -0 -0 -0 -68 -4 -4 -3 -0 -0 -0 -0 -1 -8 -58 -99 -118 -152 -142 -90 -205 -70 -57 -9 -20 -57 -115 -105
-0 -0 -0 -0 -0 -0 -0 -0 -0 -0 -0 -0 -0 -0 -0 -0 -0 -0 -0 -0 -0 -0 -0 -0 -0 -0 -0 -64 -3 -8 -3 -0 -0 -0 -0 -26 -71 -101 -54 -1 -13 -0 -1 -0 -4 -5 -51 -27 -60
-0 -0 -0 -0 -0 -0 -0 -0 -0 -0 -0 -0 -0 -0 -0 -0 -0 -0 -0 -0 -0 -0 -0 -0 -0 -0 -0 -0 -0 -4 -4 -7 -1 -0 -0 -27 -48 -35 -0 -2 -1 -1 -2 -0 -2 -51 -87 -26 -15
-0 -0 -0 -0 -0 -0 -0 -0 -0 -0 -0 -0 -0 -0 -0 -0 -0 -0 -0 -0 -0 -0 -0 -0 -0 -0 -0 -0 -0 -0 -35 -3 -5 -3 -1 -0 -0 -0 -0 -1 -0 -0 -0 -1 -0 -113 -68 -37 -11
-0 -0 -0 -0 -0 -0 -0 -0 -0 -0 -0 -0 -0 -0 -0 -0 -0 -0 -0 -0 -0 -0 -0 -0 -0 -0 -0 -0 -0 -0 -0 -18 -6 -7 -12 -9 -3 -1 -0 -0 -0 -0 -0 -0 -0 -32 -62 -32 -16
-0 -0 -0 -0 -0 -0 -0 -0 -0 -0 -0 -0 -0 -0 -0 -0 -0 -0 -0 -0 -0 -0 -0 -0 -0 -0 -0 -0 -0 -0 -0 -0 -35 -11 -12 -19 -24 -5 -2 -2 -1 -0 -0 -0 -0 -6 -38 -6 -7
-0 -0 -0 -0 -0 -0 -0 -0 -0 -0 -0 -0 -0 -0 -0 -0 -0 -0 -0 -0 -0 -0 -0 -0 -0 -0 -0 -0 -0 -0 -0 -0 -0 -47 -27 -44 -62 -34 -10 -5 -7 -3 -1 -1 -0 -0 -16 -51 -69
-0 -0 -0 -0 -0 -0 -0 -0 -0 -0 -0 -0 -0 -0 -0 -0 -0 -0 -0 -0 -0 -0 -0 -0 -0 -0 -0 -0 -0 -0 -0 -0 -0 -30 -15 -66 -69 -53 -40 -28 -18 -10 -2 -1 -0 -0 -8 -121 -0
-0 -0 -0 -0 -0 -0 -0 -0 -0 -0 -0 -0 -0 -0 -0 -0 -0 -0 -0 -0 -0 -0 -0 -0 -0 -0 -0 -0 -0 -0 -0 -0 -0 -0 -46 -7 -29 -100 -102 -38 -60 -23 -5 -2 -1 -1 -108 -0 -0
-0 -0 -0 -0 -0 -0 -0 -0 -0 -0 -0 -0 -0 -0 -0 -0 -0 -0 -0 -0 -0 -0 -0 -0 -0 -0 -0 -0 -0 -0 -0 -0 -0 -0 -0 -8 -15 -37 -65 -16 -15 -11 -8 -25 -42 -120 -0 -0 -0
-0 -0 -0 -0 -0 -0 -0 -0 -0 -0 -0 -0 -0 -0 -0 -0 -0 -0 -0 -0 -0 -0 -0 -0 -0 -0 -0 -0 -0 -0 -0 -0 -0 -0 -0 -0 -21 -2 -23 -16 -20 -36 -52 -23 -56 -86 -0 -0 -0
-0 -0 -0 -0 -0 -0 -0 -0 -0 -0 -0 -0 -0 -0 -0 -0 -0 -0 -0 -0 -0 -0 -0 -0 -0 -0 -0 -0 -0 -0 -0 -0 -0 -0 -0 -0 -0 -18 -1 -16 -26 -57 -78 -65 -91 -16 -0 -0 -0
-0 -0 -0 -0 -0 -0 -0 -0 -0 -0 -0 -0 -0 -0 -0 -0 -0 -0 -0 -0 -0 -0 -0 -0 -0 -0 -0 -0 -0 -0 -0 -0 -0 -0 -0 -0 -0 -0 -30 -0 -15 -32 -53 -75 -92 -83 -0 -0 -0
-0 -0 -0 -0 -0 -0 -1 -0 -0 -0 -0 -0 -0 -0 -0 -0 -0 -0 -0 -0 -0 -0 -0 -0 -0 -0 -0 -0 -0 -0 -0 -0 -0 -0 -0 -0 -0 -0 -0 -139 -28 -18 -60 -69 -91 -87 -0 -0 -0
-0 -0 -0 -0 -0 -0 -8 -1 -0 -0 -0 -0 -0 -0 -0 -0 -0 -0 -0 -0 -0 -0 -0 -0 -0 -0 -0 -0 -0 -0 -0 -0 -0 -0 -0 -0 -0 -0 -0 -0 -207 -12 -15 -95 -85 -108 -0 -0 -0
-0 -0 -0 -0 -0 -0 -0 -0 -0 -0 -0 -0 -0 -0 -0 -0 -0 -0 -0 -0 -0 -0 -0 -0 -0 -0 -0 -0 -0 -0 -0 -0 -0 -0 -0 -0 -0 -0 -0 -0 -20 -48 -2 -24 -47 -60 -91 -0 -0
-0 -0 -0 -0 -0 -0 -0 -0 -0 -0 -0 -0 -0 -0 -0 -0 -0 -0 -0 -0 -0 -0 -0 -0 -0 -0 -0 -0 -0 -0 -0 -0 -0 -0 -0 -0 -0 -0 -0 -0 -0 -95 -24 -8 -33 -33 -71 -107 -0
-0 -0 -0 -0 -0 -0 -0 -0 -0 -0 -0 -0 -0 -0 -0 -0 -0 -0 -0 -0 -0 -0 -0 -0 -0 -0 -0 -0 -0 -0 -0 -0 -0 -0 -0 -0 -0 -0 -0 -0 -1 -2 -2 -22 -6 -12 -21 -97 -0
-0 -0 -0 -0 -0 -0 -0 -0 -0 -0 -0 -0 -0 -0 -0 -0 -0 -0 -0 -0 -0 -0 -0 -0 -0 -0 -0 -0 -0 -0 -0 -0 -0 -0 -0 -0 -0 -0 -0 -0 -0 -2 -4 -0 -23 -2 -7 -70 -0
-0 -0 -0 -0 -0 -1 -0 -0 -0 -0 -0 -0 -0 -0 -0 -0 -0 -0 -0 -0 -0 -0 -0 -0 -0 -0 -0 -0 -0 -0 -0 -0 -0 -1 -0 -0 -0 -0 -0 -0 -0 -2 -2 -2 -0 -7 -0 -30 -33
-0 -0 -0 -0 -0 -0 -0 -0 -0 -0 -0 -0 -0 -0 -0 -0 -0 -0 -0 -0 -0 -0 -0 -0 -0 -0 -0 -0 -0 -0 -0 -0 -0 -1 -1 -0 -0 -0 -0 -0 -0 -2 -2 -3 -5 -0 -33 -0 -8
-0 -0 -0 -0 -0 -0 -0 -0 -0 -0 -0 -0 -0 -0 -0 -0 -0 -0 -0 -0 -0 -0 -0 -0 -0 -0 -0 -0 -0 -0 -0 -0 -0 -0 -0 -0 -0 -0 -0 -3 -10 -4 -2 -2 -14 -19 -16 -19 -1
-0 -0 -0 -0 -0 -0 -0 -0 -0 -0 -0 -0 -0 -0 -0 -0 -0 -0 -0 -0 -0 -0 -0 -0 -0 -0 -0 -0 -0 -0 -0 -0 -0 -0 -0 -0 -0 -0 -0 -54 -32 -7 -4 -51 -23 -9 -0 -8 -13
-0 -0 -0 -0 -0 -0 -0 -0 -0 -0 -0 -0 -0 -0 -0 -0 -0 -0 -0 -0 -0 -0 -0 -0 -0 -0 -0 -0 -0 -0 -0 -0 -0 -0 -0 -0 -0 -0 -0 -3 -59 -28 -8 -4 -69 -16 -7 -10 -23
-0 -0 -0 -0 -0 -0 -0 -0 -0 -0 -0 -0 -0 -0 -0 -0 -0 -0 -0 -0 -0 -0 -0 -0 -0 -0 -0 -0 -0 -0 -0 -0 -0 -0 -0 -0 -0 -0 -0 -50 -4 -64 -28 -18 -16 -23 -29 -45 -24
-0 -0 -0 -0 -0 -0 -0 -0 -0 -0 -0 -0 -0 -0 -0 -0 -0 -0 -0 -0 -0 -0 -0 -0 -0 -0 -0 -0 -0 -0 -0 -0 -0 -0 -0 -0 -0 -0 -0 -0 -0 -44 -45 -40 -46 -36 -51 -24 -15
-0 -0 -0 -0 -0 -0 -0 -0 -0 -0 -0 -0 -0 -0 -0 -0 -0 -0 -0 -0 -0 -0 -0 -0 -0 -0 -0 -0 -0 -0 -0 -0 -0 -0 -0 -0 -0 -0 -0 -0 -0 -40 -50 -63 -57 -52 -56 -40 -13
-0 -0 -0 -0 -0 -0 -0 -0 -0 -0 -0 -0 -0 -0 -0 -0 -0 -0 -0 -0 -0 -0 -0 -0 -0 -0 -0 -0 -0 -0 -0 -0 -0 -0 -0 -0 -0 -0 -0 -0 -0 -24 -45 -70 -79 -67 -50 -32 -17
Wind_Speed
6 5 2 6 6 6 3 5 2 2 1 4 3 2 6 3 2 4 3 4 5 6 6 9 10 7 9 9 9 9 8 8 7 7 8 8 9 9 9 10 10 10 10 10 8 9 13 16 13
4 2 5 3 6 2 6 3 6 4 1 4 1 1 5 2 1 3 2 3 6 5 6 8 13 7 9 10 9 9 9 8 7 7 7 8 9 9 9 9 9 10 10 10 9 10 14 15 15
2 4 5 5 3 5 6 5 5 2 1 3 3 4 3 3 2 4 1 3 4 7 7 7 12 13 3 8 10 10 10 10 9 9 8 8 9 9 9 8 8 8 10 9 7 13 14 15 14
4 6 5 5 4 5 4 2 3 2 1 4 2 5 2 1 1 4 3 0 4 5 5 7 10 11 11 12 8 11 12 12 10 10 11 10 10 10 10 9 7 6 7 8 10 15 16 15 14
5 4 3 1 4 4 4 3 2 2 1 1 0 4 2 1 1 5 3 1 3 5 5 6 11 11 11 11 10 6 11 13 11 11 12 12 12 12 11 8 7 6 6 10 14 14 16 14 14
5 3 3 4 4 4 4 2 1 1 1 1 3 5 3 1 1 3 0 2 3 5 6 6 8 10 11 11 10 10 9 12 13 13 13 13 13 12 10 10 9 9 10 12 13 14 15 15 14
6 4 4 2 4 3 3 1 2 3 2 2 3 5 1 2 4 3 3 2 4 4 5 5 5 6 9 10 11 11 10 11 11 13 14 14 12 12 11 10 11 12 12 12 12 12 14 14 13
5 4 1 3 1 5 3 3 1 1 3 3 2 4 4 5 3 1 2 4 5 4 4 5 5 5 6 6 9 9 11 9 9 10 12 11 11 11 11 9 11 12 12 13 13 13 13 13 12
2 5 1 3 1 5 5 3 2 3 3 1 2 4 1 2 4 2 3 4 4 3 3 4 5 5 5 4 5 9 10 10 10 5 7 8 5 7 7 8 11 13 13 13 14 13 13 11 10
5 3 3 1 2 3 5 2 4 5 4 3 2 3 2 1 1 2 3 5 4 5 3 3 4 5 5 3 4 5 5 5 5 5 4 5 6 6 8 9 11 12 13 13 14 14 12 9 4
1 3 2 3 3 3 4 5 2 1 5 7 4 2 2 2 3 5 5 5 5 4 2 3 2 4 5 4 4 2 2 3 3 6 5 4 5 5 5 4 5 5 9 6 8 7 4 6 5
2 4 3 4 2 4 4 5 6 6 8 5 5 4 3 7 8 8 8 7 5 5 4 3 4 5 5 4 4 4 3 2 3 4 5 4 3 6 6 6 7 6 5 7 6 5 5 5 6
1 3 6 7 9 7 6 9 8 8 11 8 9 8 9 8 9 8 8 6 5 5 4 4 5 5 5 5 4 4 5 4 5 4 5 4 4 5 7 7 7 8 9 8 8 8 6 6 6
3 5 8 8 9 6 9 12 5 9 7 8 6 9 9 8 8 6 6 6 6 5 6 5 6 6 5 5 6 5 4 5 4 4 5 6 5 5 5 8 8 9 10 9 9 9 8 7 6
4 6 7 5 2 7 3 7 8 14 7 10 10 8 8 8 6 9 7 6 4 5 5 7 6 5 6 6 6 5 5 7 5 5 6 7 7 6 8 6 9 10 10 12 9 9 8 7 5
3 2 4 4 7 6 4 11 8 11 6 10 7 7 6 7 7 6 6 5 5 6 7 6 5 7 7 6 6 5 6 6 6 5 5 8 9 8 8 8 7 10 10 11 10 9 8 8 8
4 5 6 8 5 7 7 7 13 13 9 10 11 9 7 8 7 7 6 6 6 5 6 8 7 8 7 7 6 6 8 7 7 6 5 8 10 10 9 8 8 7 8 9 10 10 10 9 9
6 6 7 10 6 7 14 20 19 17 10 12 11 8 8 8 11 6 7 6 6 6 6 7 7 8 8 6 6 6 6 7 7 7 7 8 8 10 10 9 10 9 8 10 10 13 11 11 9
4 5 10 15 14 7 11 16 20 18 8 12 13 11 9 9 7 6 5 5 6 6 6 7 6 9 5 3 4 4 4 4 5 6 10 9 9 10 11 9 10 9 10 12 13 12 12 11 9
5 8 15 11 7 6 14 23 24 21 13 15 15 12 10 5 7 6 5 4 5 6 6 7 7 8 7 5 4 4 5 6 7 7 8 10 11 11 11 12 11 12 10 11 13 17 10 10 11
5 7 7 10 7 6 10 13 7 5 6 10 7 9 8 11 10 5 5 5 4 5 5 6 7 9 8 9 7 6 7 7 8 9 7 9 12 12 13 13 12 13 11 11 11 12 18 11 11
5 4 7 7 9 9 6 10 8 7 8 4 7 7 8 9 5 5 6 6 5 6 5 6 8 7 8 9 8 10 9 9 8 9 7 7 10 12 13 14 14 14 10 13 12 11 14 12 12
10 2 8 5 4 4 2 2 12 5 7 5 4 7 7 7 7 7 7 7 5 5 5 6 7 8 10 9 9 9 10 8 7 8 11 10 9 12 13 13 14 14 11 13 13 12 14 12 11
7 7 2 3 1 3 3 2 9 4 5 6 3 6 7 7 7 7 6 5 6 4 5 6 7 9 9 8 10 11 13 11 9 10 10 8 7 8 12 12 13 13 14 13 10 11 13 12 14
6 6 6 8 6 6 1 1 13 9 7 6 8 9 9 8 7 7 6 5 5 5 6 5 6 9 9 10 10 10 11 11 12 11 9 11 7 7 10 12 13 11 14 14 11 11 12 12 10
3 2 5 5 4 8 3 6 10 5 8 9 8 7 5 7 6 6 6 6 6 6 6 6 6 8 8 9 9 9 10 7 8 10 9 9 9 9 11 11 11 12 12 13 13 11 10 11 10
2 2 2 3 2 5 5 9 12 4 5 3 5 4 8 8 7 7 7 7 5 5 6 6 6 6 6 8 9 10 10 10 10 12 10 8 10 9 10 11 11 11 11 12 11 9 10 9 9
2 0 4 4 6 7 6 7 8 6 6 5 7 9 8 7 7 7 7 7 5 5 6 6 6 6 7 7 8 8 9 10 10 10 11 11 11 10 10 9 10 10 10 10 11 8 7 9 8
2 1 3 4 3 3 6 11 8 8 4 7 9 9 9 8 8 8 7 7 6 4 6 6 6 7 7 6 7 7 8 9 9 9 9 9 10 9 10 10 9 10 9 8 8 8 8 10 11
2 5 5 5 5 2 3 14 4 7 8 6 10 9 9 8 8 7 7 7 7 7 6 6 5 6 6 6 7 8 7 9 9 10 9 10 8 8 9 8 9 10 9 9 8 8 8 10 12
Wind_Direction
348 346 53 41 65 63 256 252 251 248 246 329 296 176 150 72 152 197 244 12 19 29 15 29 17 176 182 170 166 177 174 173 174 164 163 163 165 168 165 161 160 161 164 164 172 138 125 116 119
340 2 45 77 93 103 261 244 219 206 227 301 156 80 44 84 110 125 93 17 36 22 11 23 22 10 188 188 183 178 178 182 190 172 177 173 171 173 174 171 169 170 166 175 174 148 131 123 133
46 37 77 89 113 188 216 219 214 183 2 148 107 56 115 138 95 144 97 79 35 31 23 4 23 26 6 201 198 196 192 190 191 179 187 188 181 180 182 176 178 177 179 186 177 148 133 143 144
28 17 37 90 228 256 232 288 248 168 191 50 119 79 52 276 221 164 156 87 44 24 10 4 19 24 27 25 235 216 205 205 207 180 181 189 192 188 190 182 178 192 194 194 170 152 147 154 152
33 55 67 58 255 261 248 279 223 226 108 49 70 182 103 20 143 133 129 73 39 15 9 17 20 19 13 9 8 282 231 221 212 200 191 190 195 197 204 166 167 192 209 167 157 154 157 162 159
42 86 71 227 238 252 277 261 282 210 254 301 105 123 179 128 195 199 239 55 46 22 360 17 18 17 16 5 4 359 337 240 226 210 205 197 197 200 208 170 175 172 161 153 155 163 167 168 166
101 87 207 224 252 283 234 237 243 204 182 223 168 131 251 265 224 199 145 58 14 12 9 0 8 11 4 5 4 358 353 350 250 225 215 208 201 202 209 187 185 182 170 165 167 171 176 177 173
103 90 80 262 274 270 316 317 333 178 254 300 182 186 202 224 244 296 4 3 346 348 354 353 357 6 7 351 344 359 355 345 334 258 226 213 207 202 208 198 193 193 187 176 176 178 181 187 180
100 52 304 271 263 297 339 324 321 313 270 289 231 156 120 131 143 149 351 332 338 327 11 357 357 357 357 341 353 354 343 345 337 300 248 220 206 200 203 198 198 197 190 189 180 185 184 189 181
69 114 242 272 274 274 304 2 318 340 348 263 274 278 274 123 189 284 278 281 294 297 328 17 354 351 349 337 355 343 337 334 328 317 266 223 203 202 195 200 195 198 187 188 190 190 186 180 178
44 203 317 290 301 321 295 299 274 276 282 239 230 216 287 268 268 279 274 244 256 271 267 311 349 343 345 340 333 324 323 317 312 307 299 241 206 191 198 194 197 197 192 189 192 188 182 180 176
338 237 251 276 301 321 288 293 290 224 238 246 231 244 235 266 270 263 261 253 247 243 259 303 323 324 318 312 303 292 294 285 286 280 287 277 248 205 201 199 196 198 192 188 184 181 180 184 189
235 323 315 287 288 253 259 247 239 251 251 252 269 271 261 249 252 253 238 240 225 246 270 285 311 306 299 294 286 285 275 261 251 264 263 248 253 242 204 205 199 203 207 200 195 196 191 190 196
294 275 282 279 274 272 250 258 165 254 262 267 247 267 267 256 251 253 229 214 215 259 278 288 294 284 283 272 274 272 275 271 256 250 238 242 236 239 241 208 199 203 203 203 203 200 195 201 191
288 319 323 278 283 293 262 289 233 255 253 261 267 263 266 257 244 233 221 214 227 254 263 274 287 278 274 269 268 265 260 273 258 245 240 233 231 238 235 234 210 209 202 201 202 202 193 197 192
333 62 0 262 305 265 165 273 283 296 251 247 258 278 289 258 226 222 208 220 245 273 283 286 276 279 281 268 261 261 260 254 254 246 238 235 232 224 232 230 243 218 203 198 192 199 198 203 203
352 280 272 301 212 282 219 282 266 270 265 261 276 271 266 273 258 227 226 241 266 264 273 284 287 273 268 272 266 253 261 251 251 247 233 238 233 228 223 230 231 217 216 209 195 197 201 206 207
279 292 267 263 278 280 276 275 268 268 261 260 265 263 262 255 248 235 237 248 280 281 276 265 273 273 276 269 270 273 265 251 243 244 241 228 232 232 227 229 229 223 224 204 203 200 198 207 212
264 260 266 275 280 286 266 272 270 271 230 247 251 251 243 236 251 238 237 272 285 278 274 270 276 277 272 275 264 269 253 264 242 235 238 235 230 229 229 229 231 227 223 228 196 203 204 200 196
277 281 282 290 280 279 282 278 273 266 242 233 239 234 230 229 248 242 251 244 241 264 270 278 275 277 268 250 244 245 263 271 276 255 228 228 231 227 229 228 225 222 226 229 222 199 204 213 188
258 240 272 271 315 258 325 291 326 296 260 252 246 229 218 216 227 242 259 247 253 262 272 285 281 275 271 258 259 258 262 256 270 262 248 228 224 227 226 229 226 225 217 224 228 225 212 196 197
292 226 260 283 333 321 45 297 309 321 308 266 265 211 222 210 211 232 255 265 257 278 291 285 273 276 284 278 274 262 256 264 259 269 250 236 227 230 227 230 230 225 222 223 222 219 224 225 205
246 299 260 270 264 314 26 287 270 322 321 304 262 245 220 204 212 235 246 260 272 276 281 283 285 289 280 281 279 270 265 263 265 254 250 237 231 227 231 228 231 230 226 221 222 223 218 223 221
308 309 339 69 324 277 240 180 285 282 255 300 281 239 238 229 224 233 244 262 273 294 304 306 301 287 287 284 283 265 261 263 266 265 268 244 236 233 226 228 226 229 227 225 212 212 225 227 229
6 11 337 355 9 234 8 210 248 260 256 255 243 229 225 226 228 235 241 265 294 299 292 292 281 288 295 297 297 298 292 274 257 260 259 257 241 231 232 219 228 227 231 227 217 215 221 223 233
346 63 132 286 316 290 305 232 260 226 298 267 266 259 242 245 244 253 259 248 257 265 276 295 301 298 305 292 299 304 296 294 284 255 245 247 236 232 227 229 229 227 226 230 222 219 218 218 223
330 10 159 277 245 289 267 286 294 287 296 315 280 254 247 247 248 255 259 254 267 277 292 290 297 285 292 310 314 311 305 303 301 298 265 250 242 236 233 227 225 225 223 224 225 222 212 206 209
158 176 21 8 346 305 296 284 245 309 298 266 256 260 269 263 256 253 256 259 249 254 266 287 298 303 302 299 293 297 302 301 298 291 285 258 247 232 231 224 226 226 223 216 212 217 203 217 210
123 210 84 141 170 199 311 275 222 235 269 295 274 261 254 260 264 266 270 267 256 262 272 293 308 307 298 309 306 309 314 315 301 292 303 268 250 234 230 227 223 222 220 212 207 203 186 201 213
192 204 163 125 260 195 165 272 282 270 285 284 281 278 278 262 265 260 258 263 264 254 266 267 278 290 295 296 308 306 328 336 327 324 320 336 254 236 234 230 234 229 217 209 197 200 197 198 210